This is the latest recevied weather packets stored in our database for station/object KK7MLS-13. If no packets are shown the sender has not sent any weather packets the latest 10 day(s).
| Time | Temp. | Humidity | Pressure | Rain* | Wind** | Luminosity | Snow |
|---|---|---|---|---|---|---|---|
| 1777664553 | 21.67° C | 52% | 1016.8 hPa | 0 mm | - | 685 W/m² | - |
| 1777664249 | 21.11° C | 53% | 1016.7 hPa | 0 mm | - | 628 W/m² | - |
| 1777663948 | 21.11° C | 52% | 1016.8 hPa | 0 mm | - | 675 W/m² | - |
| 1777663645 | 20.56° C | 55% | 1016.9 hPa | 0 mm | - | 707 W/m² | - |
| 1777663342 | 20.56° C | 52% | 1016.8 hPa | 0 mm | - | 699 W/m² | - |
| 1777663039 | 20.56° C | 53% | 1016.9 hPa | 0 mm | - | 555 W/m² | - |
| 1777662736 | 20.56° C | 56% | 1017 hPa | 0 mm | - | 680 W/m² | - |
| 1777662433 | 20.56° C | 54% | 1016.9 hPa | 0 mm | - | 692 W/m² | - |
| 1777662128 | 20° C | 56% | 1017.3 hPa | 0 mm | - | 586 W/m² | - |
| 1777661824 | 18.89° C | 61% | 1017 hPa | 0 mm | - | 658 W/m² | - |
| 1777661520 | 19.44° C | 56% | 1017.2 hPa | 0 mm | - | 585 W/m² | - |
| 1777661217 | 18.89° C | 57% | 1017.2 hPa | 0 mm | - | 451 W/m² | - |
| 1777660916 | 18.89° C | 58% | 1017.1 hPa | 0 mm | - | 569 W/m² | - |
| 1777660613 | 18.89° C | 61% | 1017 hPa | 0 mm | - | 575 W/m² | - |
| 1777660310 | 18.89° C | 61% | 1017.4 hPa | 0 mm | - | 590 W/m² | - |
| 1777660007 | 19.44° C | 58% | 1017.2 hPa | 0 mm | - | 511 W/m² | - |
| 1777659703 | 18.89° C | 62% | 1017.3 hPa | 0 mm | - | 577 W/m² | - |
| 1777659400 | 18.33° C | 60% | 1017.3 hPa | 0 mm | - | 556 W/m² | - |
| 1777659097 | 18.33° C | 59% | 1017.3 hPa | 0 mm | - | 492 W/m² | - |
| 1777658796 | 18.89° C | 62% | 1017.3 hPa | 0 mm | - | 549 W/m² | - |
| 1777658491 | 18.33° C | 61% | 1017.4 hPa | 0 mm | - | 511 W/m² | - |
| 1777658188 | 17.78° C | 65% | 1017.3 hPa | 0 mm | - | 577 W/m² | - |
| 1777657886 | 17.78° C | 64% | 1017.3 hPa | 0 mm | - | 543 W/m² | - |
| 1777657582 | 17.78° C | 63% | 1017.4 hPa | 0 mm | - | 521 W/m² | - |
| 1777657280 | 18.33° C | 64% | 1017.4 hPa | 0 mm | - | 469 W/m² | - |
* Rain latest hour (hover to see other rain measurements)
** Current wind speed in m/s (hover to see current wind gust speed)